Vertical_Velocity
-1 -0 -1 0 2 -0 0 0 -0 2 -1 -1 -2 -1 -1 -2 1 -1 -2 -1 0 -1 1 -2 -2 -2 1 -2 -4 1 -0 -1 -1 1 -6 -2 -6 0 -2 -3 -13 -10 4 3 4 -1 0
0 -1 -0 -1 -1 -0 0 -1 -1 1 1 -2 -0 -2 -0 -2 -2 -1 -2 -2 -1 -1 1 -2 -1 -3 -2 -2 -2 1 -1 -4 -2 -0 -1 0 0 9 -6 -0 -7 -2 -1 4 8 3 3
-1 -1 -1 0 1 0 -0 1 -1 1 1 -0 -1 0 -1 -1 -2 -2 -3 -1 -2 -1 0 -1 -1 -2 -0 -8 -2 -1 -4 -0 -3 1 -1 2 2 1 -0 -1 13 4 -8 0 6 3 0
-1 0 -0 0 -2 1 -0 -0 0 -0 1 -0 -1 -2 -0 -0 -3 -4 -2 -3 -1 -1 1 -2 -0 -1 -7 -3 -3 -1 -2 1 -2 2 1 -0 -2 4 -1 6 3 -4 -5 -2 -4 2 2
-1 -0 -0 -0 -1 -1 1 -1 -0 -1 1 1 -1 -1 -0 -1 -2 -5 -2 -4 -1 -2 3 -1 -1 -1 -8 1 -2 -2 -1 -1 -2 0 1 1 1 0 6 -4 -3 -1 -2 0 2 0 -1
1 -1 1 -0 -1 0 -1 -1 1 -0 -1 2 0 -0 -1 -2 -2 -4 -5 -0 2 -1 -2 1 -2 -1 -2 -4 -1 -1 -1 -1 -1 -0 -3 -1 -3 -3 -2 -3 -6 -3 0 1 -2 -7 2
1 -1 2 -1 -3 -1 -2 -1 -0 0 -1 -1 2 -0 0 -4 0 -3 -6 0 -5 0 1 -0 1 2 4 2 1 -2 -1 -2 1 2 -1 -0 -8 -2 -2 -2 -1 -1 -2 -1 -0 1 -5
-0 0 -0 -1 -2 -0 -1 -2 -1 1 -1 -2 1 2 -1 -2 -2 -1 -2 1 0 2 -11 -4 -4 -2 2 4 -0 1 1 -2 1 -1 -0 -8 -2 -2 -1 -1 -2 -1 -1 1 -2 1 -8
1 -0 2 1 -0 -2 -2 -0 -0 -1 0 -1 -1 1 -1 -2 -0 -2 -2 0 6 2 2 -13 -6 -5 -3 4 -2 -4 -0 0 -1 -0 -0 -5 -6 0 -2 -0 -3 0 -2 -0 -5 0 -2
-1 2 -2 -1 -1 -0 -3 -0 0 -0 -1 -1 -1 -1 1 0 -1 -2 3 -4 5 3 -6 -13 -0 -6 0 3 -3 -1 2 -2 0 -5 -1 -2 0 -0 -0 -0 -3 -0 -1 -1 -0 -3 -4
-2 -3 1 -3 -3 1 -3 -0 -0 0 0 -1 -1 -1 -2 2 -1 2 1 1 -1 10 -5 -16 1 4 2 -7 -1 -1 1 1 -1 -1 -9 -7 -0 -0 -1 -2 -1 -5 -1 -0 -0 -0 -1
-2 -2 2 1 -1 0 -1 -1 -2 1 0 0 -3 0 -2 1 0 5 -2 2 -2 -19 -16 -3 -1 -1 -0 3 1 2 2 2 3 -3 -3 -0 2 -2 -3 0 -1 -1 -2 -3 -2 -1 -2
-0 -2 -2 0 -4 -1 -0 -2 -1 -2 2 3 -1 -1 -3 -5 3 1 -0 3 -12 -6 -10 -2 -3 0 -1 0 3 0 0 1 -5 -6 -2 -1 -0 0 -2 -2 -2 -3 -4 -4 -5 -4 -8
-2 -2 1 1 -5 -2 -2 -1 1 1 -1 5 3 -2 -1 -3 -3 5 4 -9 1 -7 -3 -2 -1 1 -3 -3 -1 1 1 0 -1 -2 -1 -3 -3 -1 -1 -3 -7 -1 -6 -7 -3 -2 -4
-3 -0 -2 -3 3 2 0 -1 -1 1 -0 4 7 -0 -4 -1 3 2 6 -1 -12 -2 -5 0 -1 0 1 1 -6 -2 -1 -2 -1 -2 -8 -2 -2 -1 -1 -0 -8 -3 -2 -6 -3 -1 -2
1 -2 2 -3 -1 1 1 -2 -2 -1 2 1 -2 1 -10 10 -3 -1 0 -5 -2 0 1 -1 -3 -5 -1 0 -2 -2 -1 -3 0 -1 -1 -1 -4 -1 -1 -2 -1 -4 -4 -8 -4 -2 -1
-1 -1 1 -2 -1 -0 -1 -2 -1 2 -2 8 12 -6 -4 10 -0 1 -2 -5 -1 -1 9 -4 -2 -0 -2 -3 -3 -0 -1 2 -0 2 -1 -2 -9 -4 -2 -1 -3 -2 -1 -1 -7 -4 -4
-1 -2 -2 -2 -1 -2 0 -0 -0 2 -0 23 -2 -1 10 13 -2 1 -0 -2 2 -2 -3 -1 0 -1 -4 -1 -0 -0 -2 -1 2 -1 -1 -0 -4 -1 -3 -0 -1 -1 -2 -3 -6 -4 -1
-0 -2 -2 -3 -1 -2 -0 0 -2 5 -2 -9 -2 -2 6 4 -4 -0 -4 -1 0 -1 -0 -1 0 -2 -1 -2 -8 -1 0 1 1 -2 -1 -2 -1 -2 -8 -11 -5 0 -0 -1 -1 -2 -2
-2 -1 -2 -3 2 1 -3 2 3 3 5 15 -0 -4 1 6 5 -4 -0 -4 -1 0 -5 0 -0 3 -2 -1 -1 -2 1 0 0 -1 1 -3 -1 -6 -10 -6 -3 1 0 0 -4 -2 -3
0 -1 1 -2 -1 1 -3 3 -2 -0 13 2 10 -5 -7 -3 -3 1 0 1 1 -1 -2 5 -4 0 -4 -1 0 0 0 1 -1 0 0 -5 -2 -1 0 0 -0 -1 -0 -0 -0 -3 -4
-0 0 -2 -2 -4 1 -0 1 0 4 11 7 -3 -1 7 1 7 5 0 -2 1 -2 5 -4 0 -0 -1 -4 -9 -4 -5 -2 -5 1 -1 -0 -2 -1 0 -1 -1 -0 -0 0 -0 -1 0
-1 -1 -1 -3 -2 -2 2 -0 5 -1 8 -2 -0 -0 7 -1 2 1 -7 -4 -4 1 -2 0 -3 -3 -2 -1 -0 -1 2 -3 -6 -5 -0 -2 -2 -2 -1 0 -1 -6 -0 -0 -0 -0 -0
2 0 -2 -0 -4 -4 -0 3 2 -1 -2 -11 3 2 4 -4 -2 -8 1 -1 -1 -1 -0 -1 0 -5 4 7 -3 -7 -8 -3 -4 2 -1 -1 -1 -1 -1 -3 -6 -12 -0 -1 -1 1 -0
-2 -0 -2 -1 -0 -4 -0 1 -5 1 3 -2 1 -11 5 -1 -5 3 5 -1 2 -3 0 -0 -0 3 4 -2 -7 -4 -8 -7 0 1 -1 -2 -2 -2 -5 -1 -7 1 -1 -1 -2 -3 1
-1 -2 0 -2 0 -2 -1 1 0 0 4 2 5 -0 3 4 -7 5 1 -2 -2 -0 -1 -1 2 9 2 -3 -3 -2 -3 -3 3 1 -0 -2 -3 -7 -1 -2 -3 -6 -0 1 -1 -7 1
-1 -1 0 0 -0 -2 -1 2 -0 0 3 -1 -7 0 19 1 2 1 -2 -8 6 -0 -2 -0 1 -3 0 -0 -2 -2 -2 -6 -3 -2 0 -1 -1 -3 0 -1 -8 -3 -2 1 -3 -20 0
0 1 -1 -0 0 -1 -1 1 1 -1 -2 3 -9 -5 -18 8 -3 2 1 0 0 1 -4 -0 -9 -7 -2 -4 -3 -2 -2 -3 -3 -4 -4 -5 -5 -1 0 0 -9 -1 1 -5 -11 3 -1
-1 1 -1 0 -0 1 -1 -0 1 2 4 2 2 7 8 17 -5 9 4 14 -4 2 -9 4 -4 -2 -1 -4 -2 -2 -1 -1 -2 -3 2 -5 -11 -11 -12 -12 -3 1 -2 -2 -0 -6 -0
Height
1520 1521 1523 1525 1527 1529 1531 1532 1534 1535 1537 1538 1538 1539 1539 1540 1539 1538 1538 1536 1535 1535 1534 1533 1532 1531 1531 1531 1531 1530 1529 1528 1528 1527 1525 1523 1523 1525 1528 1534 1536 1543 1553 1555 1559 1562 1564
1516 1517 1519 1522 1523 1525 1527 1529 1531 1532 1534 1536 1537 1537 1538 1538 1537 1536 1536 1535 1535 1534 1534 1532 1531 1530 1531 1531 1529 1529 1529 1528 1528 1527 1526 1525 1527 1528 1531 1534 1535 1550 1554 1561 1565 1566 1569
1512 1513 1515 1517 1520 1521 1523 1525 1528 1530 1531 1533 1534 1535 1536 1536 1536 1535 1534 1534 1534 1533 1533 1531 1530 1529 1529 1529 1528 1528 1528 1528 1527 1527 1525 1525 1527 1528 1531 1539 1544 1549 1559 1567 1569 1566 1571
1508 1509 1511 1512 1515 1517 1520 1522 1524 1526 1528 1530 1532 1533 1534 1534 1534 1533 1532 1532 1532 1531 1531 1530 1529 1529 1527 1527 1527 1527 1527 1527 1526 1525 1525 1526 1526 1528 1529 1538 1547 1550 1558 1572 1568 1563 1570
1504 1505 1506 1508 1510 1513 1515 1518 1520 1523 1525 1527 1529 1531 1532 1532 1532 1532 1530 1530 1530 1529 1530 1529 1530 1529 1527 1526 1526 1526 1526 1525 1525 1525 1524 1525 1526 1528 1533 1540 1555 1554 1570 1567 1568 1562 1564
1500 1501 1502 1504 1506 1508 1511 1514 1517 1519 1522 1524 1526 1529 1530 1530 1530 1530 1529 1528 1528 1528 1528 1528 1529 1531 1526 1526 1526 1525 1525 1524 1525 1524 1525 1525 1526 1533 1538 1547 1569 1561 1564 1563 1566 1563 1565
1495 1496 1497 1498 1501 1504 1507 1509 1513 1515 1518 1521 1523 1526 1527 1529 1529 1529 1530 1526 1529 1529 1528 1526 1526 1525 1525 1526 1525 1525 1525 1525 1525 1525 1528 1528 1536 1545 1538 1536 1536 1540 1549 1559 1557 1554 1562
1489 1490 1492 1494 1496 1500 1503 1505 1508 1512 1515 1518 1521 1523 1526 1527 1528 1529 1530 1529 1532 1535 1529 1523 1522 1524 1524 1525 1526 1525 1526 1526 1525 1528 1529 1536 1543 1534 1532 1534 1538 1542 1552 1557 1553 1553 1557
1485 1485 1486 1489 1491 1494 1497 1501 1504 1508 1511 1515 1519 1521 1524 1526 1528 1530 1530 1532 1531 1533 1532 1521 1520 1521 1524 1525 1524 1524 1525 1524 1524 1528 1529 1538 1535 1532 1535 1541 1545 1549 1556 1558 1557 1553 1560
1480 1480 1481 1483 1485 1489 1493 1496 1500 1505 1508 1512 1516 1519 1522 1525 1529 1528 1530 1531 1531 1533 1540 1523 1517 1517 1520 1522 1523 1522 1522 1524 1523 1532 1530 1533 1531 1533 1538 1543 1544 1554 1545 1546 1552 1561 1577
1476 1475 1476 1478 1481 1484 1488 1492 1496 1501 1506 1510 1514 1517 1520 1524 1525 1527 1529 1529 1530 1532 1562 1512 1512 1513 1515 1519 1519 1519 1520 1522 1524 1524 1528 1538 1534 1537 1543 1542 1539 1546 1542 1546 1549 1561 1563
1471 1471 1472 1473 1477 1481 1484 1489 1493 1497 1503 1508 1512 1515 1518 1521 1523 1525 1527 1528 1530 1544 1559 1512 1507 1509 1513 1516 1517 1518 1519 1520 1521 1526 1527 1532 1533 1536 1539 1538 1539 1541 1546 1553 1557 1564 1580
1467 1468 1469 1471 1475 1478 1482 1486 1491 1495 1499 1505 1509 1513 1516 1519 1522 1523 1525 1528 1542 1550 1513 1512 1509 1507 1511 1515 1517 1516 1518 1520 1527 1542 1542 1537 1539 1537 1537 1543 1542 1545 1560 1582 1583 1584 1581
1466 1467 1469 1470 1473 1477 1480 1484 1488 1493 1497 1502 1507 1510 1513 1517 1520 1522 1523 1530 1540 1521 1511 1500 1502 1506 1514 1511 1514 1516 1520 1526 1523 1526 1544 1553 1559 1540 1537 1541 1548 1549 1557 1580 1578 1584 1571
1463 1465 1467 1469 1473 1476 1479 1482 1487 1490 1495 1499 1504 1507 1510 1515 1520 1522 1523 1537 1523 1509 1499 1500 1504 1513 1514 1509 1512 1515 1521 1526 1523 1523 1539 1548 1550 1538 1537 1539 1542 1546 1556 1549 1561 1563 1574
1461 1463 1466 1469 1472 1474 1477 1480 1484 1488 1492 1497 1501 1505 1509 1515 1520 1523 1523 1521 1511 1497 1492 1493 1507 1506 1517 1512 1512 1516 1521 1519 1522 1521 1522 1534 1552 1540 1539 1540 1540 1543 1543 1559 1567 1574 1573
1457 1460 1463 1466 1469 1472 1475 1479 1483 1486 1490 1497 1498 1505 1507 1512 1517 1523 1525 1515 1503 1493 1497 1495 1499 1505 1504 1509 1510 1515 1520 1518 1517 1520 1522 1526 1540 1547 1540 1544 1546 1548 1551 1551 1558 1570 1577
1454 1457 1460 1464 1468 1472 1475 1478 1481 1485 1491 1494 1499 1505 1504 1509 1515 1516 1516 1507 1501 1493 1495 1492 1489 1491 1499 1502 1509 1512 1518 1517 1517 1518 1525 1527 1540 1553 1545 1539 1538 1539 1543 1550 1570 1564 1568
1452 1454 1458 1462 1466 1470 1473 1476 1479 1483 1488 1492 1497 1501 1504 1506 1514 1513 1510 1506 1505 1497 1494 1493 1487 1484 1487 1500 1514 1516 1519 1520 1517 1519 1523 1525 1541 1559 1555 1550 1542 1542 1541 1542 1551 1560 1565
1448 1452 1455 1459 1464 1467 1471 1475 1477 1481 1486 1492 1495 1502 1504 1503 1502 1502 1508 1506 1504 1497 1497 1496 1493 1485 1487 1498 1503 1517 1519 1520 1518 1519 1521 1523 1536 1545 1559 1546 1542 1544 1539 1540 1548 1567 1562
1444 1448 1452 1456 1461 1465 1469 1472 1475 1479 1483 1488 1488 1488 1487 1499 1498 1498 1501 1503 1501 1500 1494 1491 1488 1485 1487 1502 1506 1515 1518 1521 1521 1522 1523 1526 1540 1537 1539 1539 1539 1539 1540 1540 1545 1548 1556
1438 1443 1447 1452 1457 1461 1466 1470 1474 1477 1480 1485 1484 1487 1486 1484 1488 1497 1496 1500 1499 1495 1496 1491 1489 1485 1484 1492 1490 1509 1510 1515 1518 1524 1526 1529 1543 1539 1543 1541 1541 1541 1539 1539 1541 1541 1543
1433 1438 1443 1448 1453 1457 1462 1467 1471 1474 1478 1479 1485 1484 1485 1482 1485 1494 1492 1490 1493 1494 1492 1489 1484 1488 1491 1489 1488 1493 1498 1504 1509 1520 1529 1533 1540 1552 1550 1547 1545 1551 1539 1538 1537 1537 1540
1427 1432 1438 1443 1448 1453 1457 1463 1466 1470 1475 1479 1482 1485 1485 1485 1482 1482 1484 1485 1489 1493 1495 1489 1486 1485 1495 1492 1493 1500 1503 1510 1516 1521 1522 1532 1540 1551 1562 1554 1571 1542 1535 1534 1536 1540 1539
1420 1426 1432 1438 1443 1448 1453 1458 1463 1467 1472 1477 1480 1484 1485 1481 1476 1479 1483 1486 1483 1492 1496 1489 1487 1487 1491 1491 1502 1516 1528 1524 1527 1527 1527 1526 1539 1560 1566 1567 1551 1538 1536 1536 1537 1543 1540
1412 1419 1425 1432 1438 1444 1449 1454 1459 1464 1469 1475 1477 1481 1483 1479 1472 1473 1478 1480 1481 1492 1496 1490 1489 1488 1490 1496 1506 1530 1539 1530 1536 1533 1531 1531 1535 1547 1570 1566 1561 1539 1533 1535 1537 1552 1542
1403 1411 1418 1426 1433 1439 1445 1451 1455 1461 1466 1471 1475 1480 1481 1480 1473 1472 1471 1475 1474 1479 1493 1491 1490 1492 1493 1502 1518 1528 1531 1520 1534 1535 1538 1540 1544 1554 1566 1563 1553 1535 1533 1535 1548 1554 1542
1393 1402 1411 1419 1427 1434 1441 1447 1452 1457 1463 1467 1471 1477 1481 1482 1474 1469 1468 1468 1471 1472 1483 1487 1493 1496 1499 1508 1514 1521 1525 1519 1522 1524 1529 1536 1548 1554 1557 1561 1556 1530 1533 1540 1538 1538 1540
1384 1393 1403 1412 1421 1429 1436 1443 1449 1454 1459 1465 1470 1474 1478 1480 1478 1470 1468 1466 1467 1470 1473 1479 1485 1489 1492 1502 1508 1511 1519 1520 1521 1536 1519 1530 1525 1533 1534 1537 1525 1526 1528 1531 1533 1535 1539